Location: ????????
(37.8361°N, 23.0402°E)
Time: 17:21:39
(UTC+00:00)

Cosmos 1980 Rocket - Pass Details

Date: 08 August 2025
Orbit: 827 x 850 km, 71.0° (Epoch: 13 April)

Event Time Altitude Azimuth Distance (km) Brightness Sun altitude
Rises 19:13:39 0° 233° (SW) 3,363 5.5 -18.7°
Reaches altitude 10° 19:16:27 10° 245° (WSW) 2,436 4.9 -19.1°
Maximum altitude 19:21:07 27° 302° (WNW) 1,565 4.4 -19.8°
Drops below altitude 10° 19:25:50 10° 359° (N) 2,461 5.2 -20.6°
Sets 19:28:41 0° 12° (NNE) 3,403 5.8 -21.0°
